Trenton, NJ

7:30 PM EST on December 09, 2016 (GMT -0500)
Trenton Mercer

Weather History for KTTN - January, 2014

Change the Weather History Date:

Saturday, January 11, 2014

  Actual Average Record
Temperature  
Mean Temperature 49 °F 31 °F  
Max Temperature 63 °F 39 °F 65 °F (1975)
Min Temperature 35 °F 23 °F 0 °F (1988)
Degree Days  
Heating Degree Days 16 34  
Month to date heating degree days 446 373  
Since 1 July heating degree days 2333 2268  
Cooling Degree Days 0 0  
Month to date cooling degree days 0 0  
Year to date cooling degree days 0 0  
Moisture  
Dew Point 51 °F    
Average Humidity 92    
Maximum Humidity 100    
Minimum Humidity 84    
Precipitation  
Precipitation 0.60 in 0.10 in 1.04 in (1924)
Month to date precipitation 2.17 1.24  
Year to date precipitation 2.17 1.24  
Sea Level Pressure  
Sea Level Pressure 29.68 in    
Wind  
Wind Speed 10 mph (South)    
Max Wind Speed 23 mph    
Max Gust Speed 36 mph    
Visibility 4 miles    
Events Fog , Rain    
T = Trace of Precipitation, MM = Missing Value Source: NWS Daily Summary

Daily Weather History Graph

Daily Weather History Graph

Search for Another Location

Airport or City:

Trip Planner

Search our weather history database for the weather conditions in past years. The results will help you decide how hot, cold, wet, or windy it might be!

Date:

Astronomy

Jan. 11, 2014 Rise Set
Actual Time 7:21 AM EST 4:53 PM EST
Civil Twilight 6:51 AM EST 5:23 PM EST
Nautical Twilight 6:17 AM EST 5:57 PM EST
Astronomical Twilight 5:44 AM EST 6:30 PM EST
Moon 1:36 PM EST (1/11) 3:23 AM EST (1/11)
Length of Visible Light 10h 32m
Length of Day
9h 32m
Waxing Gibbous, 83% of the Moon is Illuminated
Jan 11
Waxing Gibbous
Jan 15
Full
Jan 24
Last Quarter
Jan 30
New
Feb 6
First Quarter

Hourly Weather History & Observations

Time (EST) Temp. Windchill Dew Point Humidity Pressure Visibility Wind Dir Wind Speed Gust Speed Precip Events Conditions
12:53 AM 36.0 °F 32.1 °F 35.1 °F 97% 30.14 in 1.0 mi NE 4.6 mph - 0.01 in Rain Light Rain
1:07 AM 35.6 °F 32.8 °F 35.6 °F 100% 30.14 in 0.8 mi NE 3.5 mph - 0.01 in Rain Light Rain
1:40 AM 37.4 °F 32.1 °F 35.6 °F 93% 30.11 in 1.0 mi NE 6.9 mph - 0.05 in   Overcast
1:53 AM 37.0 °F 33.3 °F 36.0 °F 96% 30.10 in 1.0 mi NE 4.6 mph - 0.05 in   Overcast
2:33 AM 37.4 °F 33.8 °F 35.6 °F 93% 30.08 in 0.8 mi ENE 4.6 mph - N/A   Mist
2:43 AM 37.4 °F 33.8 °F 35.6 °F 93% 30.08 in 1.0 mi ENE 4.6 mph - N/A   Overcast
2:53 AM 37.0 °F 32.4 °F 36.0 °F 96% 30.06 in 1.0 mi ENE 5.8 mph - N/A   Overcast
3:08 AM 37.4 °F 33.8 °F 37.4 °F 100% 30.06 in 0.8 mi ENE 4.6 mph - N/A   Mist
3:53 AM 39.0 °F 36.8 °F 39.0 °F 100% 30.01 in 0.2 mi East 3.5 mph - N/A Fog Fog
4:47 AM 42.8 °F 41.1 °F 41.0 °F 93% 29.98 in 1.0 mi NE 3.5 mph - 0.00 in   Overcast
4:53 AM 42.1 °F - 41.0 °F 96% 29.97 in 1.5 mi Calm Calm - 0.00 in   Overcast
5:13 AM 42.8 °F 41.1 °F 42.8 °F 100% 29.97 in 1.5 mi ENE 3.5 mph - N/A   Overcast
5:30 AM 44.6 °F - 42.8 °F 93% 29.96 in 2.5 mi Calm Calm - N/A   Overcast
5:43 AM 44.6 °F 43.1 °F 42.8 °F 93% 29.95 in 1.0 mi ESE 3.5 mph - N/A   Overcast
5:51 AM 44.6 °F 43.1 °F 44.6 °F 100% 29.94 in 0.5 mi SE 3.5 mph - N/A Fog Fog
5:53 AM 45.0 °F 42.6 °F 44.1 °F 97% 29.92 in 0.5 mi SE 4.6 mph - N/A Fog Fog
6:53 AM 51.1 °F - 50.0 °F 96% 29.91 in 0.2 mi Calm Calm - 0.01 in Fog Fog
7:53 AM 55.9 °F - 55.0 °F 97% 29.86 in 0.5 mi South 12.7 mph 18.4 mph 0.01 in Fog , Rain Light Rain
7:59 AM 55.4 °F - 55.4 °F 100% 29.87 in 2.0 mi South 15.0 mph 20.7 mph 0.00 in Rain Light Rain
8:06 AM 57.2 °F - 55.4 °F 94% 29.87 in 9.0 mi SSW 17.3 mph 23.0 mph 0.00 in   Overcast
8:35 AM 57.2 °F - 57.2 °F 100% 29.85 in 10.0 mi South 20.7 mph 29.9 mph 0.00 in   Overcast
8:53 AM 57.9 °F - 57.0 °F 97% 29.82 in 7.0 mi South 20.7 mph 31.1 mph 0.01 in Rain Light Rain
9:13 AM 57.2 °F - 55.4 °F 94% 29.83 in 5.0 mi South 17.3 mph 25.3 mph 0.03 in Rain Rain
9:53 AM 57.9 °F - 57.0 °F 97% 29.79 in 4.0 mi South 13.8 mph - 0.08 in Rain Light Rain
10:53 AM 59.0 °F - 57.0 °F 93% 29.74 in 5.0 mi South 15.0 mph 21.9 mph 0.00 in Rain Light Rain
11:10 AM 59.0 °F - 57.2 °F 94% 29.72 in 9.0 mi South 15.0 mph 24.2 mph 0.00 in   Overcast
11:26 AM 59.0 °F - 57.2 °F 94% 29.70 in 2.0 mi South 12.7 mph - 0.00 in Rain Light Rain
11:34 AM 59.0 °F - 57.2 °F 94% 29.69 in 1.5 mi South 16.1 mph 23.0 mph 0.01 in Rain Light Rain
11:44 AM 59.0 °F - 57.2 °F 94% 29.68 in 3.0 mi South 16.1 mph 24.2 mph 0.01 in Rain Light Rain
11:53 AM 59.0 °F - 57.9 °F 96% 29.65 in 4.0 mi South 15.0 mph - 0.01 in   Overcast
12:31 PM 59.0 °F - 57.2 °F 94% 29.62 in 2.0 mi South 15.0 mph - 0.00 in   Overcast
12:41 PM 59.0 °F - 57.2 °F 94% 29.62 in 7.0 mi SSW 13.8 mph - 0.01 in Rain Light Rain
12:53 PM 60.1 °F - 57.9 °F 93% 29.60 in 6.0 mi SSW 10.4 mph - 0.01 in   Overcast
1:14 PM 60.8 °F - 59.0 °F 94% 29.57 in 2.0 mi SSW 9.2 mph - 0.03 in Rain Light Rain
1:24 PM 60.8 °F - 59.0 °F 94% 29.51 in 5.0 mi South 6.9 mph - 0.04 in Rain Light Rain
1:33 PM 60.8 °F - 59.0 °F 94% 29.54 in 10.0 mi South 13.8 mph 19.6 mph 0.04 in Rain Light Rain
1:53 PM 61.0 °F - 59.0 °F 93% 29.52 in 10.0 mi SSW 17.3 mph 25.3 mph 0.04 in   Overcast
2:53 PM 62.1 °F - 60.1 °F 93% 29.47 in 10.0 mi SSW 15.0 mph 21.9 mph 0.01 in Rain Light Rain
3:28 PM 62.6 °F - 60.8 °F 94% 29.46 in 10.0 mi SSW 12.7 mph 23.0 mph 0.01 in Rain Light Rain
3:49 PM 62.6 °F - 60.8 °F 94% 29.49 in 1.2 mi WSW 17.3 mph 29.9 mph 0.11 in Rain Heavy Rain
3:53 PM 62.1 °F - 57.9 °F 86% 29.47 in 1.2 mi West 13.8 mph 29.9 mph 0.11 in Rain Heavy Rain
3:57 PM 62.6 °F - 57.2 °F 82% 29.49 in 2.5 mi WSW 11.5 mph 29.9 mph 0.00 in Rain Light Rain
3:59 PM 60.8 °F - 57.2 °F 88% 29.49 in 4.0 mi WSW 12.7 mph 20.7 mph 0.01 in Rain Light Rain
4:39 PM 57.2 °F - 53.6 °F 88% 29.47 in 2.5 mi West 6.9 mph 17.3 mph 0.11 in Rain Heavy Rain
4:53 PM 57.0 °F - 54.0 °F 89% 29.46 in 5.0 mi West 8.1 mph - 0.16 in Rain Rain
5:53 PM 55.0 °F - 53.1 °F 93% 29.47 in 10.0 mi SW 3.5 mph - 0.07 in Rain Light Rain
6:53 PM 53.1 °F - 52.0 °F 96% 29.42 in 6.0 mi South 4.6 mph - 0.01 in Rain Light Rain
7:03 PM 53.6 °F - 51.8 °F 94% 29.42 in 1.5 mi SSE 5.8 mph - 0.00 in Rain Light Rain
7:12 PM 53.6 °F - 51.8 °F 94% 29.42 in 0.8 mi South 5.8 mph - 0.00 in Rain Light Rain
7:15 PM 53.6 °F - 53.6 °F 100% 29.42 in 1.2 mi South 5.8 mph - 0.00 in Rain Light Rain
7:32 PM 53.6 °F - 53.6 °F 100% 29.36 in 0.8 mi SE 8.1 mph - 0.00 in Rain Light Rain
7:50 PM 53.6 °F - 53.6 °F 100% 29.38 in 2.0 mi SSE 10.4 mph - 0.00 in   Overcast
7:53 PM 53.1 °F - 52.0 °F 96% 29.36 in 3.0 mi SSE 10.4 mph - 0.00 in   Overcast
8:34 PM 53.6 °F - 51.8 °F 94% 29.41 in 8.0 mi WSW 6.9 mph - N/A   Overcast
8:53 PM 53.1 °F - 52.0 °F 96% 29.42 in 8.0 mi SW 9.2 mph - N/A   Mostly Cloudy
9:01 PM 53.6 °F - 51.8 °F 94% 29.44 in 9.0 mi SW 8.1 mph - N/A   Overcast
9:53 PM 53.1 °F - 50.0 °F 89% 29.42 in 10.0 mi SW 10.4 mph - N/A   Overcast
10:09 PM 53.6 °F - 51.8 °F 94% 29.45 in 10.0 mi SW 9.2 mph - N/A   Overcast
10:31 PM 53.6 °F - 51.8 °F 94% 29.44 in 10.0 mi SW 9.2 mph - 0.01 in   Overcast
10:53 PM 53.1 °F - 50.0 °F 89% 29.43 in 10.0 mi SW 13.8 mph 18.4 mph 0.01 in   Overcast
11:21 PM 53.6 °F - 50.0 °F 88% 29.43 in 10.0 mi WSW 9.2 mph - N/A   Overcast
11:53 PM 52.0 °F - 50.0 °F 93% 29.43 in 10.0 mi WSW 8.1 mph - N/A   Overcast